Wind_Speed
31 32 33 35 34 31 31 29 26 24 22 20 21 9 19 22 20 17 17 17 16 16 17 17 18 16 13 18 18 17 12 11 15 24 15 7 19 17 16 4 5 7 4 4
31 32 32 33 34 32 30 28 27 22 18 18 12 20 17 16 16 16 12 14 18 20 20 16 10 17 15 16 21 12 19 7 7 14 7 11 17 18 18 17 8 4 1 3
32 33 33 33 35 32 29 28 23 23 20 11 20 17 15 14 12 12 12 14 15 19 21 17 17 22 18 17 16 16 16 9 11 6 11 14 11 16 20 9 3 7 8 6
32 33 33 33 34 31 28 26 22 21 18 21 16 18 17 14 15 13 13 16 13 16 20 18 22 17 20 15 14 8 8 8 9 8 4 3 13 17 15 19 7 4 7 9
31 32 31 30 32 31 26 24 25 25 24 22 21 19 21 18 16 17 16 16 15 14 20 21 24 17 17 20 10 10 8 5 6 8 7 5 9 14 15 9 11 12 9 10
33 32 30 28 28 28 26 24 24 29 30 30 26 27 25 24 22 22 15 15 17 20 18 15 18 18 21 21 18 15 12 5 4 3 8 8 7 12 15 13 10 8 7 5
32 30 28 27 25 19 23 27 25 29 33 28 29 29 31 29 31 24 18 18 18 18 17 16 16 20 16 14 14 15 11 6 5 3 2 1 2 4 7 8 10 9 8 6
30 29 29 28 24 20 22 23 24 23 32 33 37 37 37 29 31 22 21 17 17 19 15 16 9 5 2 4 8 9 9 7 3 2 2 1 3 4 4 6 4 9 9 8
29 27 26 26 26 25 30 30 29 31 36 37 31 31 31 27 13 15 15 15 16 16 12 10 4 2 2 2 2 6 10 10 5 4 2 3 1 5 1 1 1 8 8 9
29 29 28 27 29 29 24 25 23 22 30 32 25 23 28 18 16 16 14 13 15 13 11 10 7 4 3 3 2 3 5 4 5 5 2 1 4 3 1 1 2 7 8 8
29 28 29 31 32 26 19 21 23 24 29 31 27 18 19 20 15 17 10 10 12 11 11 7 7 5 4 4 4 3 3 2 3 2 2 1 5 2 3 1 2 5 7 7
30 32 32 30 26 19 14 19 22 23 21 22 23 22 16 11 12 11 8 10 10 7 7 7 5 5 4 5 3 4 4 3 3 2 3 6 1 1 1 1 2 3 4 6
33 32 27 23 21 19 20 20 19 19 17 16 19 18 11 12 9 7 6 7 8 10 10 9 6 4 5 6 7 6 4 4 2 1 5 4 4 4 5 5 5 4 4 5
30 26 22 22 22 23 21 19 16 14 10 12 11 10 13 12 9 5 6 8 9 7 7 9 8 7 6 7 7 8 6 4 3 5 3 5 6 7 8 8 7 6 5 6
26 25 24 26 25 22 17 13 9 6 6 11 15 16 13 10 7 5 7 8 8 9 12 8 9 8 5 6 6 6 6 5 5 4 5 6 7 5 6 8 9 7 6 6
24 28 29 25 21 16 12 6 5 5 7 5 8 8 4 4 7 5 4 4 4 10 8 6 6 7 6 6 5 5 5 6 6 4 4 5 7 8 8 7 9 9 7 6
26 28 28 23 19 14 7 5 8 12 9 12 6 6 5 4 4 3 2 4 5 6 7 6 5 6 6 4 3 5 4 3 2 3 4 5 5 5 5 6 7 9 8 7
27 23 10 16 16 11 7 7 7 4 8 9 5 6 7 4 4 3 2 2 2 2 3 5 6 4 4 4 4 3 2 1 2 3 3 5 6 4 4 6 7 7 8 9
23 16 14 14 10 9 8 6 5 4 5 4 4 6 6 4 4 3 1 1 1 3 4 4 4 5 6 5 3 1 1 1 2 3 3 4 6 6 6 6 6 7 7 7
19 14 10 7 8 7 6 4 4 2 5 9 8 5 2 2 3 3 2 1 2 3 4 3 6 12 6 3 2 0 1 3 4 4 4 4 5 6 7 7 7 7 7 7
15 10 7 6 5 4 3 2 3 5 4 7 8 6 4 3 3 4 2 2 2 3 2 1 4 6 3 1 2 3 3 4 5 6 7 7 7 7 8 9 9 9 9 8
12 8 5 3 3 4 3 6 6 6 6 9 6 3 2 2 3 2 2 2 2 4 3 2 5 4 3 3 4 4 5 5 7 8 8 9 9 9 9 10 10 10 10 10
9 5 5 4 6 9 9 10 6 4 7 8 6 3 2 2 3 2 2 2 4 6 2 4 4 4 5 5 5 5 5 6 7 8 9 10 10 10 10 10 11 11 11 12
5 6 13 10 9 11 12 12 10 8 6 6 5 5 3 4 3 3 3 4 3 4 4 3 5 5 5 5 6 6 6 6 7 8 8 9 10 10 10 10 11 12 12 13
8 8 10 15 17 17 16 15 12 10 7 6 5 7 6 5 4 4 4 3 5 5 3 5 6 6 6 7 7 7 7 7 8 8 9 9 10 10 10 10 10 11 12 13
31 20 16 18 15 14 11 12 13 11 7 5 6 6 4 6 5 4 6 3 4 3 5 6 6 6 7 7 8 9 9 9 9 9 10 10 10 11 11 11 11 11 12 13
25 25 22 21 22 24 22 15 15 18 11 5 4 5 5 5 5 6 6 5 5 5 6 7 8 7 7 8 9 9 10 11 11 11 11 12 12 13 13 13 14 14 15 15
Wind_Direction
311 313 313 313 311 312 312 310 310 313 310 304 305 280 298 302 306 305 301 296 293 288 286 289 300 295 283 291 325 320 303 288 291 316 322 273 341 324 340 309 347 324 73 82
312 312 311 311 312 314 313 313 312 314 307 302 293 306 307 308 312 312 296 288 287 285 278 286 292 301 293 280 298 282 306 265 307 323 340 343 339 331 332 311 264 2 345 97
314 313 314 315 313 315 318 318 317 315 314 297 313 314 316 314 308 305 302 304 297 281 288 293 288 303 303 309 279 265 274 295 289 255 294 314 349 358 358 343 91 86 82 99
315 316 315 314 312 316 318 318 318 313 302 306 309 314 312 312 302 301 295 300 299 281 283 276 294 299 306 313 293 242 252 272 291 299 297 15 32 19 17 38 54 83 116 80
315 314 314 314 312 313 318 319 318 312 310 313 310 302 310 307 296 283 291 286 304 286 275 277 293 294 300 304 278 261 296 274 294 301 259 249 14 32 34 55 68 89 87 67
316 315 315 313 313 315 318 322 318 313 310 311 303 309 310 304 298 286 274 284 294 296 306 276 282 286 290 281 267 259 290 247 280 248 256 279 301 17 27 43 47 45 45 31
315 316 313 311 311 306 302 317 304 307 305 302 303 306 307 303 293 290 273 277 283 306 293 292 299 294 282 262 250 246 237 231 278 272 263 278 219 346 3 6 33 37 25 5
315 314 310 311 306 305 291 281 278 290 288 292 293 300 302 296 294 271 277 278 283 293 284 297 313 271 231 222 232 232 219 210 244 255 93 191 258 288 299 315 322 11 13 12
315 312 310 307 307 301 294 293 286 280 282 287 296 299 297 291 270 275 283 267 275 283 279 279 254 268 284 232 177 232 213 201 226 215 180 216 196 329 30 335 331 354 357 0
314 313 311 310 305 302 301 293 288 288 279 292 300 285 299 297 290 275 270 258 278 269 252 253 246 237 238 238 187 155 150 156 237 226 202 224 334 337 296 320 343 339 350 359
314 313 311 307 305 306 296 287 283 276 284 284 291 286 284 290 287 263 243 264 270 244 234 240 237 229 225 219 203 191 187 202 193 213 210 240 290 264 251 296 339 344 349 357
316 315 314 311 310 309 301 287 284 283 283 276 281 290 294 280 242 227 238 265 258 229 217 224 220 213 212 215 218 221 203 220 183 221 199 174 162 226 307 318 330 347 350 355
319 319 320 319 316 310 297 299 292 289 281 274 277 281 255 225 237 231 256 271 257 233 228 234 222 219 228 218 225 206 195 185 206 179 208 231 236 269 294 313 323 336 338 340
323 325 325 324 320 314 309 303 296 289 277 245 247 241 209 210 240 218 269 267 259 236 229 242 247 236 229 227 221 208 206 202 231 251 232 240 263 272 278 288 304 314 315 320
327 326 325 323 320 317 313 310 304 288 239 258 237 240 230 207 222 236 278 276 255 226 225 247 224 223 198 211 193 194 206 218 228 252 259 255 267 280 288 289 294 298 302 310
328 323 324 324 324 320 318 296 235 242 268 264 180 195 207 219 238 244 263 275 256 241 205 212 218 208 189 186 196 211 208 221 242 252 258 257 259 270 277 284 286 289 293 297
326 323 323 325 329 334 326 286 253 229 272 222 217 199 205 226 233 208 242 248 243 250 220 200 199 192 188 183 157 182 191 204 234 264 275 281 276 267 275 276 278 284 291 295
326 323 316 317 322 323 326 300 290 276 228 227 182 175 186 194 209 212 219 223 249 220 197 170 165 168 173 104 131 164 207 236 253 263 276 283 285 296 295 289 285 288 290 295
326 323 298 307 317 325 329 335 330 283 253 207 159 170 181 201 203 197 152 94 123 135 142 156 153 116 74 87 99 111 159 218 250 255 266 280 287 298 294 290 296 297 290 292
328 321 315 312 319 322 326 330 359 12 65 77 77 94 108 144 174 162 162 149 106 123 85 105 97 92 99 99 98 136 262 269 276 281 274 271 279 288 294 301 305 299 297 299
333 333 322 318 322 338 356 9 33 34 60 39 33 50 69 59 125 142 139 138 126 120 80 110 96 96 87 32 323 296 290 286 285 285 287 285 285 287 289 292 292 293 296 296
342 345 351 1 17 14 33 33 29 35 41 10 358 2 64 82 119 112 106 144 138 100 123 103 88 70 17 340 322 310 302 296 292 288 288 288 288 286 284 285 285 286 288 292
355 20 19 30 28 27 35 19 14 5 357 5 23 9 55 102 76 95 104 99 82 128 92 73 72 8 337 327 319 313 307 303 301 299 299 297 295 291 288 284 282 283 285 286
23 50 40 43 27 27 23 18 13 10 17 21 33 36 69 81 79 75 74 87 108 76 68 57 6 346 337 334 329 322 318 313 309 306 304 303 303 301 298 293 288 286 285 286
73 55 48 43 38 30 24 22 20 17 20 30 59 59 66 61 67 56 78 67 61 62 43 351 345 346 343 338 333 330 327 321 318 315 314 312 308 306 306 304 300 295 291 289
72 78 72 56 47 37 30 28 25 26 37 55 60 55 54 46 46 40 50 53 60 21 348 343 345 342 336 333 328 326 325 322 317 315 312 310 308 307 308 307 304 301 298 296
76 67 61 55 50 44 41 42 44 40 42 51 59 50 59 49 37 48 43 55 33 11 356 348 345 339 334 329 323 323 321 318 316 314 312 308 305 303 302 301 300 299 297 294
Height
3078 3074 3069 3064 3061 3059 3054 3050 3047 3044 3040 3040 3035 3032 3030 3028 3024 3022 3020 3017 3015 3014 3013 3011 3009 3008 3006 3003 3001 2998 2997 2993 2989 2985 2982 2980 2977 2974 2970 2965 2958 2956 2952 2965
3073 3068 3064 3059 3054 3050 3047 3044 3041 3038 3036 3033 3030 3028 3025 3023 3021 3019 3016 3015 3013 3011 3010 3009 3005 3004 3003 3001 2998 2996 2994 2990 2987 2983 2983 2980 2976 2973 2967 2961 2959 2959 2958 2966
3067 3062 3057 3052 3047 3044 3042 3038 3035 3031 3028 3026 3025 3022 3020 3018 3016 3013 3012 3011 3010 3008 3006 3005 3002 3000 2997 2996 2993 2992 2991 2988 2988 2988 2985 2981 2977 2972 2966 2958 2958 2960 2962 2964
3061 3056 3052 3047 3040 3038 3035 3031 3028 3025 3025 3021 3019 3017 3016 3014 3012 3010 3008 3006 3005 3004 3001 2999 2998 2996 2993 2991 2988 2988 2988 2987 2986 2984 2982 2980 2977 2973 2969 2962 2961 2961 2965 2964
3056 3051 3047 3043 3036 3032 3031 3028 3024 3019 3018 3016 3014 3011 3010 3009 3007 3005 3004 3002 3000 2998 2996 2995 2992 2992 2990 2988 2988 2986 2985 2985 2984 2982 2981 2980 2977 2976 2972 2969 2968 2968 2968 2966
3050 3045 3041 3037 3032 3026 3024 3022 3019 3015 3012 3009 3008 3007 3005 3003 3002 2999 2998 2997 2994 2992 2991 2989 2988 2987 2985 2983 2983 2983 2983 2983 2982 2980 2979 2979 2979 2977 2975 2973 2971 2970 2969 2970
3044 3040 3035 3031 3028 3023 3021 3018 3013 3009 3002 3002 2999 2998 2998 2996 2994 2993 2993 2992 2989 2989 2986 2985 2983 2980 2978 2977 2978 2979 2980 2981 2981 2980 2980 2983 2979 2978 2977 2976 2973 2971 2970 2968
3038 3033 3029 3025 3021 3019 3014 3013 3011 3006 2998 2996 2995 2992 2989 2987 2987 2987 2987 2987 2985 2983 2983 2982 2979 2977 2976 2975 2974 2975 2977 2979 2979 2979 2978 2980 2977 2978 2978 2976 2975 2973 2971 2969
3031 3026 3022 3019 3015 3012 3006 3004 3001 2998 2993 2990 2988 2985 2982 2979 2980 2982 2981 2981 2981 2980 2979 2979 2977 2976 2975 2975 2974 2974 2975 2977 2979 2977 2977 2979 2978 2977 2976 2975 2976 2973 2971 2968
3024 3020 3015 3011 3007 3003 2999 2995 2994 2991 2986 2984 2983 2981 2979 2977 2976 2975 2976 2976 2976 2976 2976 2976 2976 2974 2974 2974 2973 2974 2974 2974 2976 2975 2975 2976 2976 2976 2975 2977 2982 2974 2973 2972
3018 3013 3008 3004 2998 2994 2991 2988 2986 2985 2980 2978 2976 2975 2974 2972 2971 2971 2972 2974 2972 2972 2973 2974 2973 2972 2972 2972 2972 2972 2974 2974 2974 2974 2975 2977 2976 2976 2978 2977 2975 2974 2972 2971
3010 3006 3000 2994 2990 2987 2983 2981 2978 2976 2974 2973 2971 2970 2969 2967 2967 2968 2968 2970 2969 2969 2970 2971 2971 2971 2971 2971 2972 2973 2974 2974 2974 2976 2975 2975 2975 2975 2975 2975 2975 2974 2973 2972
3003 2997 2992 2987 2983 2980 2977 2974 2971 2970 2968 2968 2966 2965 2965 2965 2965 2965 2967 2967 2966 2967 2968 2969 2969 2970 2970 2970 2970 2971 2972 2972 2973 2975 2975 2974 2974 2974 2974 2973 2973 2973 2972 2972
2995 2990 2986 2981 2978 2974 2970 2968 2966 2965 2964 2964 2962 2963 2963 2962 2963 2963 2964 2965 2965 2966 2966 2967 2967 2968 2968 2968 2969 2970 2972 2972 2972 2973 2974 2974 2974 2973 2973 2973 2972 2972 2972 2971
2989 2985 2981 2976 2971 2968 2965 2963 2961 2960 2963 2960 2958 2959 2960 2960 2960 2962 2962 2962 2962 2963 2963 2964 2965 2965 2967 2967 2968 2969 2970 2971 2972 2972 2973 2973 2973 2972 2972 2971 2971 2971 2970 2969
2985 2979 2975 2972 2967 2963 2961 2960 2961 2960 2959 2959 2958 2959 2958 2958 2959 2960 2960 2960 2960 2961 2961 2962 2963 2964 2966 2966 2967 2968 2969 2970 2970 2971 2971 2971 2971 2971 2970 2970 2969 2969 2969 2968
2980 2974 2968 2965 2963 2960 2959 2959 2958 2957 2956 2956 2956 2957 2957 2958 2958 2959 2959 2960 2960 2960 2960 2961 2962 2963 2965 2965 2967 2968 2969 2969 2970 2970 2970 2969 2969 2969 2969 2968 2967 2967 2966 2966
2976 2971 2967 2962 2960 2958 2957 2956 2955 2954 2955 2954 2954 2955 2958 2958 2958 2959 2959 2959 2959 2959 2960 2961 2962 2964 2964 2966 2968 2968 2968 2969 2969 2969 2968 2968 2968 2968 2967 2967 2966 2965 2965 2964
2971 2967 2964 2962 2959 2957 2956 2954 2953 2952 2955 2952 2953 2954 2956 2957 2957 2958 2959 2958 2959 2960 2960 2961 2964 2963 2965 2968 2968 2968 2968 2969 2968 2968 2967 2967 2967 2966 2966 2965 2965 2964 2963 2962
2967 2963 2962 2959 2958 2956 2956 2954 2954 2953 2952 2952 2954 2955 2956 2958 2957 2957 2959 2959 2959 2960 2963 2963 2963 2966 2969 2968 2968 2968 2968 2968 2968 2967 2967 2966 2966 2965 2964 2963 2963 2962 2962 2961
2964 2961 2960 2958 2957 2956 2955 2954 2954 2954 2955 2956 2956 2956 2956 2957 2957 2957 2958 2959 2959 2961 2964 2964 2965 2968 2969 2968 2968 2968 2967 2967 2966 2966 2965 2964 2964 2963 2962 2961 2961 2960 2959 2959
2962 2961 2959 2958 2957 2956 2957 2956 2958 2957 2958 2959 2957 2957 2957 2957 2957 2958 2959 2959 2961 2962 2964 2964 2967 2970 2969 2968 2968 2967 2966 2966 2965 2964 2963 2962 2962 2961 2961 2959 2958 2958 2957 2956
2961 2960 2959 2958 2960 2959 2960 2962 2961 2961 2961 2959 2958 2957 2957 2957 2958 2958 2959 2960 2961 2964 2964 2967 2970 2969 2968 2968 2967 2966 2965 2964 2963 2962 2961 2960 2959 2958 2958 2957 2956 2955 2955 2954
2961 2961 2962 2964 2967 2969 2967 2965 2963 2962 2961 2960 2959 2958 2958 2958 2959 2959 2960 2962 2964 2964 2967 2970 2969 2968 2967 2966 2965 2965 2964 2962 2961 2960 2959 2958 2957 2956 2955 2954 2954 2953 2952 2951
2962 2967 2971 2974 2973 2971 2968 2966 2964 2963 2961 2960 2959 2959 2960 2960 2960 2961 2963 2964 2966 2968 2970 2970 2969 2968 2967 2966 2964 2963 2962 2961 2960 2959 2957 2956 2955 2953 2952 2951 2951 2950 2949 2948
2969 2975 2980 2979 2977 2975 2971 2969 2966 2964 2962 2962 2961 2961 2962 2962 2963 2964 2965 2968 2970 2971 2970 2969 2968 2967 2966 2965 2963 2962 2960 2959 2958 2957 2955 2954 2953 2951 2950 2949 2948 2947 2946 2945
2980 2983 2983 2983 2980 2977 2974 2972 2969 2967 2965 2963 2963 2964 2965 2967 2967 2969 2970 2971 2971 2970 2970 2968 2967 2966 2965 2963 2962 2960 2958 2957 2955 2954 2952 2951 2950 2948 2947 2946 2944 2943 2942 2941